Tracking 22881 objects as of 19-Apr-2021
HD Live streaming from Space Station
objects crossing your sky now

OPS 5805

Track OPS 5805 now!
OPS 5805 is classified as:


NORAD ID: 12093
Int'l Code: 1980-100A
Perigee: 1,558.6 km
Apogee: 38,850.3 km
Inclination: 63.6 °
Period: 718.6 minutes
Semi major axis: 26575 km
RCS: Unknown
Launch date: December 13, 1980
Source: United States (US)
Launch site: AIR FORCE WESTERN TEST RANGE (AFWTR)
aabbcc
Your satellite tracking list
Your tracking list is empty




NASA's NSSDC Master Catalog

Two Line Element Set (TLE):
1 12093U 80100A   21108.73327199 -.00001319  00000-0  00000-0 0  9992
2 12093  63.6449  47.1193 7016194 277.4994  14.3878  2.00392543 14334
Source of the keplerian elements: AFSPC